User: anonymous
Location: Unspecified
(0.0000°N, 0.0000°E)
Time: 05:42:15
(UTC+00:00)
Language:

ASTRA 1KR - Orbit

View from above orbital plane
View from above orbital plane
View from above satellite
View from above satellite

Ground track
Ground track

The orbit data is extracted from the following two-line orbital elements,

1 29055U 06012A   14109.71356488  .00000107  00000-0  00000+0 0   221
2 29055 000.0173 259.2563 0002758 230.8639 353.6967 01.00274442 29339
Epoch (UTC): 19 April 2014 17:07:32
Eccentricity: 0.0002758
inclination: 0.0173°
perigee height: 35774 km
apogee height: 35797 km
right ascension of ascending node: 259.2563°
argument of perigee: 230.8639°
revolutions per day: 1.00274442
mean anomaly at epoch: 353.6967°
orbit number at epoch: 2933

The dashed part of the orbit path shows where the satellite is in the earth's shadow,  

DLR